User: anonymous   Login
Location: Unspecified
(0.0000°N, 0.0000°E)
Time: 00:53:44
(UTC+00:00)
Language:

ROBUSTA 1B - Orbit

View from above orbital plane
View from above orbital plane
View from above satellite
View from above satellite

Ground track
Ground track

The orbit data is extracted from the following two-line orbital elements,

1 42792U 17036AD  21023.67383222  .00001588  00000-0  67291-4 0  9993
2 42792  97.2735  78.2042 0009789 337.5839  22.4970 15.24547359199360
Epoch (UTC): 23 January 2021 16:10:19
Eccentricity: 0.0009789
inclination: 97.2735°
perigee height: 485 km
apogee height: 499 km
right ascension of ascending node: 78.2042°
argument of perigee: 337.5839°
revolutions per day: 15.24547359
mean anomaly at epoch: 22.4970°
orbit number at epoch: 19936

The dashed part of the orbit path shows where the satellite is in the earth's shadow,  

DLR